User: anonymous   Login
Location: Unspecified
(0.0000°N, 0.0000°E)
Time: 01:06:58
(UTC+00:00)
Language:

Alouette 1 - Orbit

View from above orbital plane
View from above orbital plane
View from above satellite
View from above satellite

Ground track
Ground track

The orbit data is extracted from the following two-line orbital elements,

1 00424U 62049A   15086.72852501  .00000113  00000-0  12017-3 0  9990
2 00424 080.4701 350.3688 0023630 011.8211 017.4729 13.69000440620301
Epoch (UTC): 27 March 2015 17:29:04
Eccentricity: 0.0023630
inclination: 80.4701°
perigee height: 986 km
apogee height: 1020 km
right ascension of ascending node: 350.3688°
argument of perigee: 11.8211°
revolutions per day: 13.69000440
mean anomaly at epoch: 17.4729°
orbit number at epoch: 62030

The dashed part of the orbit path shows where the satellite is in the earth's shadow,  

DLR